Погода в Карбызе

Россия / Омская область     56°35′22″N   75°54′51″E
темп.,
°C
ветер,
м/с
пор.,
м/с
влажн.,
%
обл.,
%
осадки,
мм/ч
давл.,
гПа
погр.,
м
7 мая, пт
пт700:00+12сз511464 0.0 1007424
03:00+8зсз410590 0.0 1009315
06:00+7з39690 0.0 1011324
09:00+12з611478 0.0 10121819
12:00+13з811375 0.0 10131945
15:00+15зсз811300 0.0 10141914
18:00+16зсз712280 0.0 10151770
21:00+11з35390 0.0 101773
8 мая, сб
сб800:00+9зюз410505 0.0 1018200
03:00+9зюз5135560 0.0 1018255
06:00+10з410567 0.0 1019274
09:00+16з611445 0.0 1018706
12:00+20з8123410 0.0 10172428
15:00+22зсз7102924 0.0 10162919
18:00+21с673745 0.0 10171360
21:00+16ссз2453100 0.0 101889
9 мая, вс
вс900:00+14св366492 0.0 1019180
03:00+10всв3557100 0.0 101997
06:00+8св366136 0.0 1020160
09:00+12всв45495 0.0 1021544
12:00+16св44395 0.0 10211098
15:00+18св5532100 0.0 10201530
18:00+17св563398 0.0 10201534
21:00+12св374593 0.0 1021139
10 мая, пн
пн1000:00+9всв4953100 0.0 1021199
03:00+7св496095 0.0 1021180
06:00+6св48664 0.0 1022204
09:00+11в57484 0.0 1022830
12:00+14всв563775 0.0 10212157
15:00+16всв663293 0.0 10202504
18:00+14св663461 0.0 10202066
21:00+10св484621 0.0 1021189
11 мая, вт
вт1100:00+7ссв49605 0.0 1021204
03:00+5ссв37685 0.0 1021128
06:00+5ссв377384 0.0 1022174
09:00+11св46515 0.0 1022999
12:00+12всв454485 0.1 10221629
15:00+15св453799 0.0 10212007
18:00+14св454399 0.0 10211698
21:00+11ссв236182 0.1 102253